Location: Newark
(34.0131°N, 4.3314°W)
Time: 06:32:22
(UTC+00:00)

A-11 Canister half - Pass Details

Date: 28 October 2019
Orbit: 1514 x 1686 km, 47.2° (Epoch: 13 November)

Event Time Altitude Azimuth Distance (km) Brightness Sun altitude
Rises 09:05:36 0° 289° (WNW) 4,743 11.1 27.1°
Reaches altitude 10° 09:10:29 10° 268° (W) 3,724 10.7 27.8°
Maximum altitude 09:15:09 15° 238° (WSW) 3,316 10.7 28.6°
Drops below altitude 10° 09:19:48 10° 207° (SSW) 3,673 11.3 29.3°
Sets 09:24:37 0° 185° (S) 4,640 12.0 30.0°
